This is the latest recevied weather packets stored in our database for station/object GW4288. If no packets are shown the sender has not sent any weather packets the latest 1 day(s).
| Time | Temp. | Humidity | Pressure | Rain* | Wind** | Luminosity | Snow |
|---|---|---|---|---|---|---|---|
| 1778172670 | 18.89° C | 59% | 1012.4 hPa | 0 mm | - | 35 W/m² | - |
| 1778172537 | 18.89° C | 59% | 1012.3 hPa | 0 mm | - | 59 W/m² | - |
| 1778172416 | 18.89° C | 60% | 1012.3 hPa | 0 mm | - | 62 W/m² | - |
| 1778172297 | 18.89° C | 60% | 1012.4 hPa | 0 mm | - | 66 W/m² | - |
| 1778172176 | 18.33° C | 60% | 1012.2 hPa | 0 mm | - | 69 W/m² | - |
| 1778172056 | 18.33° C | 60% | 1012.3 hPa | 0 mm | - | 72 W/m² | - |
| 1778171936 | 18.33° C | 60% | 1012.2 hPa | 0 mm | - | 76 W/m² | - |
| 1778171842 | 18.33° C | 59% | 1012.3 hPa | 0 mm | - | 68 W/m² | - |
| 1778171697 | 18.89° C | 60% | 1012.2 hPa | 0 mm | - | 79 W/m² | - |
| 1778171649 | 18.89° C | 61% | 1012.3 hPa | 0 mm | - | 79 W/m² | - |
| 1778171456 | 18.33° C | 61% | 1012.3 hPa | 0 mm | - | 89 W/m² | - |
| 1778171336 | 18.89° C | 60% | 1012.4 hPa | 0 mm | - | 96 W/m² | - |
| 1778171218 | 19.44° C | 59% | 1012.2 hPa | 0 mm | - | 100 W/m² | - |
| 1778171097 | 19.44° C | 57% | 1012.3 hPa | 0 mm | - | 112 W/m² | - |
| 1778170976 | 19.44° C | 57% | 1012.3 hPa | 0 mm | - | 118 W/m² | - |
| 1778170857 | 18.89° C | 58% | 1012.1 hPa | 0 mm | - | 127 W/m² | - |
| 1778170737 | 18.89° C | 59% | 1012.2 hPa | 0 mm | - | 135 W/m² | - |
| 1778170621 | 18.89° C | 59% | 1012.4 hPa | 0 mm | - | 143 W/m² | - |
| 1778170497 | 18.89° C | 60% | 1012.3 hPa | 0 mm | - | 150 W/m² | - |
| 1778170377 | 18.33° C | 60% | 1012.1 hPa | 0 mm | - | 86 W/m² | - |
| 1778170256 | 18.33° C | 61% | 1012.2 hPa | 0 mm | - | 90 W/m² | - |
| 1778170136 | 18.89° C | 59% | 1012.4 hPa | 0 mm | - | 118 W/m² | - |
| 1778170017 | 18.89° C | 61% | 1012.4 hPa | 0 mm | - | 164 W/m² | - |
| 1778169897 | 18.89° C | 60% | 1012.2 hPa | 0 mm | - | 187 W/m² | - |
| 1778169776 | 18.33° C | 60% | 1012.4 hPa | 0 mm | - | 190 W/m² | - |
* Rain latest hour (hover to see other rain measurements)
** Current wind speed in m/s (hover to see current wind gust speed)